TimeEDT,TemperatureF,Dew PointF,Humidity,Sea Level PressureIn,VisibilityMPH,Wind Direction,Wind SpeedMPH,Gust SpeedMPH,PrecipitationIn,Events,Conditions,WindDirDegrees,DateUTC
12:54 AM,46.9,44.1,90,30.18,-9999.0,North,-9999.0,-,N/A,,Unknown,0,2013-06-20 04:54:00
1:54 AM,45.0,43.0,93,30.19,-9999.0,North,-9999.0,-,N/A,,Unknown,0,2013-06-20 05:54:00
2:54 AM,44.1,42.1,93,30.20,-9999.0,North,-9999.0,-,N/A,,Unknown,0,2013-06-20 06:54:00
3:54 AM,42.1,41.0,96,30.21,-9999.0,North,-9999.0,-,N/A,,Unknown,0,2013-06-20 07:54:00
4:54 AM,42.1,41.0,96,30.23,-9999.0,North,-9999.0,-,N/A,,Unknown,0,2013-06-20 08:54:00
5:54 AM,41.0,39.0,93,30.25,-9999.0,North,-9999.0,-,N/A,,Unknown,0,2013-06-20 09:54:00
6:54 AM,43.0,41.0,93,30.26,-9999.0,North,-9999.0,-,N/A,,Unknown,0,2013-06-20 10:54:00
7:54 AM,46.9,43.0,86,30.27,-9999.0,North,-9999.0,-,N/A,,Unknown,0,2013-06-20 11:54:00
8:54 AM,54.0,45.0,72,30.26,-9999.0,North,-9999.0,-,N/A,,Unknown,0,2013-06-20 12:54:00
9:54 AM,61.0,45.0,56,30.25,-9999.0,North,-9999.0,-,N/A,,Unknown,0,2013-06-20 13:54:00
10:54 AM,66.0,41.0,40,30.23,-9999.0,North,-9999.0,-,N/A,,Unknown,0,2013-06-20 14:54:00
11:54 AM,66.9,43.0,42,30.22,-9999.0,North,-9999.0,-,N/A,,Unknown,0,2013-06-20 15:54:00
12:54 PM,70.0,44.1,39,30.21,-9999.0,North,-9999.0,-,N/A,,Unknown,0,2013-06-20 16:54:00
1:54 PM,71.1,37.9,30,30.20,-9999.0,North,-9999.0,-,N/A,,Unknown,0,2013-06-20 17:54:00
2:54 PM,72.0,39.9,31,30.19,-9999.0,North,-9999.0,-,N/A,,Unknown,0,2013-06-20 18:54:00
3:54 PM,75.0,39.9,28,30.17,-9999.0,North,-9999.0,-,N/A,,Unknown,0,2013-06-20 19:54:00
4:54 PM,75.0,42.1,31,30.17,-9999.0,North,-9999.0,-,N/A,,Unknown,0,2013-06-20 20:54:00
5:54 PM,73.9,43.0,33,30.16,-9999.0,North,-9999.0,-,N/A,,Unknown,0,2013-06-20 21:54:00
6:54 PM,73.0,41.0,31,30.16,-9999.0,North,-9999.0,-,N/A,,Unknown,0,2013-06-20 22:54:00
7:54 PM,69.1,46.0,44,30.16,-9999.0,North,-9999.0,-,N/A,,Unknown,0,2013-06-20 23:54:00
8:54 PM,63.0,48.0,58,30.17,-9999.0,North,-9999.0,-,N/A,,Unknown,0,2013-06-21 00:54:00
9:54 PM,59.0,48.9,69,30.19,-9999.0,North,-9999.0,-,N/A,,Unknown,0,2013-06-21 01:54:00
10:54 PM,55.9,48.9,77,30.19,-9999.0,North,-9999.0,-,N/A,,Unknown,0,2013-06-21 02:54:00
11:54 PM,54.0,48.0,80,30.20,-9999.0,North,-9999.0,-,N/A,,Unknown,0,2013-06-21 03:54:00